#timestamp,LO_Frequency,Hit,StdDev 
1672977615.4,286046997.3,N
1672977635.3,286046997.8,N
1672977655.1,286046999.4,N
1672977675.9,286046996.5,N
1672977695.7,286047003.9,N
1672977715.5,286047004.8,N
1672977735.4,286047009.0,N
1672977755.2,286047007.3,N
1672977775.0,286047003.0,N
1672977775.9,286047003.0,N
1672977795.8,286047005.6,N
1672977815.6,286047007.2,N
1672977835.5,286047003.1,N
1672977855.3,286047003.8,N
1672977875.1,286047009.0,N
1672977895.9,286047002.6,N
1672977915.7,286047000.6,N
1672977935.5,286046998.4,N
1672977955.4,286047000.2,N
1672977975.2,286046999.0,N
1672977995.0,286047001.1,N
1672977996.0,286047001.1,N
1672978015.8,286046999.5,N
1672978035.6,286047007.5,N
1672978055.5,286047004.9,N
1672978075.3,286047005.3,N
1672978095.1,286047006.2,N
1672978115.9,286047006.4,N
1672978135.7,286047004.7,N
1672978155.5,286047004.4,N
1672978175.4,286047002.0,N
1672978195.2,286047001.5,N
1672978215.1,286047001.6,N
1672978216.0,286047001.6,N
1672978235.8,286047001.6,N
1672978255.6,286047003.1,N
1672978275.5,286047002.4,N
1672978295.3,286047001.8,N
1672978315.1,286047007.3,N
1672978335.9,286047005.9,N
1672978355.7,286047003.4,N
1672978375.6,286047003.5,N
1672978395.4,286047006.6,N
1672978415.2,286047005.6,N
1672978435.1,286047000.7,N
1672978436.0,286047000.7,N
1672978455.8,286046996.9,N
1672978475.6,286046999.6,N
1672978495.5,286047002.6,N
1672978515.3,286046998.4,N
1672978535.2,286047000.3,N
1672978555.9,286046999.7,N
1672978575.7,286047004.0,N
1672978595.6,286047001.6,N
1672978615.4,286047001.0,N
1672978635.2,286047004.3,N
1672978655.1,286047002.1,N
1672978656.0,286047002.1,N
1672978705.9,286047002.0,E
1672978715.8,286047003.1,N
1672978735.6,286047000.7,P
1672978755.4,286047004.9,P
1672978775.3,286047012.9,Y
1672978795.1,286047017.1,P
1672978815.9,286047025.2,P
1672978835.7,286047030.0,P
1672978855.5,286047032.8,Y
1672978875.4,286047012.0,P
1672978895.2,286047009.0,N
1672978915.1,286047003.2,N
1672978916.0,286047003.2,N
1672978935.8,286046999.8,N
1672978955.6,286046993.9,N
1672978975.5,286046989.4,N
1672978995.3,286046989.3,N
1672979015.1,286046988.1,N
1672979035.9,286046989.3,N
1672979055.7,286046986.2,N
1672979075.5,286046984.0,N
1672979095.4,286046989.6,N
1672979115.2,286046991.7,N
1672979135.1,286046992.1,N
1672979136.0,286046992.1,N
1672979155.8,286046988.6,N
1672979175.6,286046993.8,N
1672979195.5,286046998.5,N
1672979215.3,286047003.8,N
1672979235.1,286047006.2,N
1672979255.9,286047010.5,N
1672979275.7,286047013.6,N
1672979295.6,286047015.1,N
1672979315.4,286047013.8,N
1672979335.2,286047018.8,N
1672979355.1,286047015.6,N
1672979356.0,286047015.6,N
1672979375.8,286047016.2,N
1672979395.6,286047007.8,N
1672979415.5,286047010.0,N
1672979435.3,286047001.7,N
1672979455.2,286047002.1,N
1672979475.9,286047003.1,N
1672979495.7,286046996.5,N
1672979515.6,286046996.4,N
1672979535.4,286046990.3,N
1672979555.2,286046987.5,N
1672979575.1,286046989.9,N
1672979576.0,286046989.9,N
1672979595.8,286046985.7,N
1672979615.7,286046984.3,N
1672979635.5,286046980.8,N
1672979655.3,286046978.0,N
1672979675.2,286046978.7,N
1672979695.0,286046976.3,N
1672979695.9,286046976.3,N
1672979715.7,286046978.0,N
1672979735.6,286046981.7,N
1672979755.4,286046978.1,N
1672979775.3,286046981.2,N
1672979795.1,286046978.9,N
1672979796.0,286046978.9,N
1672979815.8,286046978.6,N
1672979835.7,286046980.4,N
1672979855.5,286046978.3,N
1672979875.3,286046976.4,N
1672979895.2,286046973.2,N
1672979915.0,286046975.9,N
1672979915.9,286046975.9,N
1672979935.8,286046975.2,N
1672979955.6,286046973.5,Y
1672979975.4,286046987.9,P
1672979995.3,286046986.3,P
1672980015.1,286046991.1,P
1672980035.9,286046988.2,Y
1672980055.7,286047004.1,P
1672980075.5,286047004.6,N
1672980095.4,286047002.1,N
1672980115.2,286047003.5,N
1672980135.0,286047004.1,N
1672980135.9,286047004.1,N
1672980155.8,286046998.1,N
1672980175.6,286047000.6,N
1672980195.4,286047002.4,N
1672980215.3,286046999.7,N
1672980235.1,286047000.0,N
1672980255.9,286047001.4,N
1672980275.7,286047004.3,N
1672980295.5,286047003.7,N
1672980315.4,286047002.0,N
1672980335.2,286047002.7,N
1672980355.0,286047001.2,N
1672980355.9,286047001.2,N
1672980375.8,286046998.7,N
1672980395.6,286047003.9,N
1672980415.5,286047004.1,N
1672980435.3,286047000.3,N
1672980455.1,286047007.2,N
1672980475.9,286047006.0,N
1672980495.7,286047001.9,N
1672980515.5,286047001.2,N
1672980535.4,286047000.8,N
1672980555.2,286046998.4,N
1672980575.1,286047001.3,N
1672980576.0,286047001.3,N
1672980595.8,286047003.3,N
1672980615.6,286047001.0,N
1672980635.5,286047010.7,Y
1672980655.3,286047005.8,P
1672980675.1,286047002.9,N
1672980695.9,286047001.8,N
1672980715.7,286047003.3,N
1672980735.6,286047002.0,N
1672980755.4,286047001.3,N
1672980775.3,286047002.3,N
1672980795.1,286047001.4,N
1672980796.0,286047001.4,N
1672980815.8,286047002.8,N
1672980835.7,286046998.9,N
1672980855.5,286046995.4,Y
1672980875.3,286046990.2,P
1672980895.2,286046993.7,N
1672980915.0,286046996.7,N
1672980915.9,286046996.7,N
1672980935.8,286046995.8,N
1672980955.6,286046993.3,N
1672980975.4,286046995.2,N
1672980995.3,286046996.2,N
1672981015.1,286046991.9,N
1672981035.8,286046993.0,N
1672981055.7,286046999.1,N
1672981075.5,286047002.5,N
1672981095.4,286046998.8,N
1672981115.2,286047000.9,N
1672981135.0,286047002.3,N
1672981135.9,286047002.3,N
1672981155.8,286047001.8,N
1672981175.6,286047002.2,N
1672981195.4,286047006.0,N
